Flag for U.S.A. Weather past 2 weeks in Annapolis, Maryland, U.S.A.

Now
52 °F

Overcast.


Feels Like: 50 °F
Forecast: 39 / 57 °F
Wind: 7 mph from West

Location: Annapolis - United States Naval Academy

Current Time: Mar 30, 2015 at 12:23:57 PM

Latest Report: Mar 30, 2015 at 11:54 AM


Visibility: 10 mi

Pressure: 29.91 "Hg

Humidity: 35%

Dew point: 25 °F

Location of AnnapolisLocation

Historic Weather in Annapolis — Graph

°F

Annapolis temperature yesterday

Maximum temperature yesterday: 42 °F (at 2:54 PM)
Minimum temperature yesterday: 26 °F (at 6:54 AM)
Average temperature yesterday: 34 °F

Past Weeks' High & Low Weather Summary

 TemperatureHumidityPressure
High66 °F (Mar 17, 12:54 PM)97% (Mar 26, 1:02 PM)30.42 "Hg (Mar 26, 1:02 PM)
Low26 °F (Mar 29, 6:54 AM)21% (Mar 18, 5:54 PM)29.60 "Hg (Mar 26, 6:54 PM)
Average40 °F61%30.09 "Hg
* Reported Mar 15 10:54 AM — Mar 30 10:54 AM, Annapolis, Weather by CustomWeather, © 2015

Note: Actual official high and low records may vary slightly from our data, if they occured in-between our weather recording intervals... More about our weather records

Advertising

Annapolis weather history for previous 24 hours

 ConditionsComfort  
Time TempWeatherWind HumidityBarometerVisibility
10:54 AM
Mon, Mar 30
50 °FScattered clouds.10 mph36%29.92 "Hg10 mi
9:54 AM47 °FPartly sunny.8 mph41%29.92 "Hg10 mi
8:54 AM43 °FOvercast.9 mph47%29.93 "Hg10 mi
7:54 AM41 °FMostly cloudy.9 mph55%29.94 "Hg10 mi
6:54 AM40 °FMostly cloudy.8 mph65%29.94 "Hg10 mi
5:54 AM38 °FLight rain. Overcast.6 mph70%29.98 "Hg10 mi
4:54 AM40 °FLight rain. Mostly cloudy.6 mph53%30.01 "Hg10 mi
3:54 AM40 °FOvercast.7 mph58%30.03 "Hg10 mi
2:54 AM39 °FMostly cloudy.9 mph55%30.05 "Hg10 mi
1:54 AM39 °FMostly cloudy.9 mph62%30.10 "Hg10 mi
12:54 AM38 °FClear.10 mph60%30.12 "Hg10 mi
11:54 PM
Sun, Mar 29
39 °FClear.13 mph62%30.16 "Hg10 mi
10:54 PM38 °FClear.10 mph60%30.15 "Hg10 mi
9:54 PM38 °FClear.9 mph63%30.19 "Hg10 mi
8:54 PM37 °FClear.8 mph57%30.21 "Hg10 mi
7:54 PM38 °FSunny.12 mph51%30.22 "Hg10 mi
6:54 PM40 °FSunny.8 mph43%30.23 "Hg10 mi
5:54 PM42 °FSunny.7 mph41%30.25 "Hg10 mi
4:54 PM39 °FSunny.14 mph50%30.26 "Hg10 mi
3:54 PM39 °FSunny.13 mph45%30.28 "Hg10 mi
2:54 PM42 °FSunny.N/A23%30.31 "Hg10 mi
1:54 PM40 °FSunny.9 mph27%30.33 "Hg10 mi
12:54 PM37 °FSunny.10 mph30%30.36 "Hg10 mi
Weather by CustomWeather, © 2015

See weather overviewHow to use our weather pages